Terug naar catalogus

COSMOS 249 DEB

ActiefLEO
NORAD 3757·DEBRIS·🇷🇺 Russia

Gelanceerd Oct 20, 1968 vanaf Baikonur Cosmodrome

Loading…

Volgende Passages (komende 24 uur)

TLE

VersSource: Space-Track

Epoch: Sep 14, 2026, 02:20 UTC

1 03757U 68091AU  26257.09741119  .00006043  00000-0  65265-3 0  9990
2 03757  61.9715 285.8192 0351596 130.3085 232.9276 14.53306042846835

Volg COSMOS 249 DEB in realtime met AllMySat

Download on the App Store